This demonstration page uses our WeatherBlox Daily Observations layout. Learn more.

Left ArrowRight Arrow

Hourly Observations for October 18, 2022

Temp ( °F °C ) Dew Point ( °F °C ) Humidity (%) Winds ( mph kmh ) Pressure ( in mb ) Visibility ( mi km ) Precip ( " mm )
12:53 am 00:53 Clear 36 2.2 28 -2.2 73 73 Calm 30.14 1021 N/A 0.00 0.00
1:53 am 01:53 Clear 35 1.7 28 -2.2 75 75 Calm 30.14 1021 N/A 0.00 0.00
2:53 am 02:53 Clear 35 1.7 28 -2.2 75 75 Calm 30.14 1021 N/A 0.00 0.00
3:53 am 03:53 Clear 33 0.6 27 -2.8 78 78 SSW 3 6 30.15 1021 N/A 0.00 0.00
4:53 am 04:53 Clear 32 0 27 -2.8 81 81 Calm 30.15 1021 N/A 0.00 0.00
5:53 am 05:53 Clear 31 -0.6 27 -2.8 85 85 SSW 3 6 30.17 1022 N/A 0.00 0.00
6:53 am 06:53 Clear 31 -0.6 25 -3.9 78 78 Calm 30.19 1022 N/A 0.00 0.00
7:53 am 07:53 Sunny 30 -1.1 26 -3.3 85 85 Calm 30.22 1023 N/A 0.00 0.00
8:53 am 08:53 Sunny 36 2.2 28 -2.2 73 73 Calm 30.22 1023 N/A 0.00 0.00
9:53 am 09:53 Sunny 43 6.1 31 -0.6 62 62 Calm 30.23 1024 N/A 0.00 0.00
10:53 am 10:53 Sunny 52 11.1 35 1.7 52 52 SW 8 13 30.21 1023 N/A 0.00 0.00
11:53 am 11:53 Sunny 63 17.2 35 1.7 35 35 WSW 12 19 30.18 1022 N/A 0.00 0.00
12:53 pm 12:53 Sunny 67 19.4 33 0.6 28 28 WSW 15 24 30.17 1022 N/A 0.00 0.00
1:53 pm 13:53 Sunny 70 21.1 33 0.6 25 25 WSW 13 20 30.16 1021 N/A 0.00 0.00
2:53 pm 14:53 Sunny 74 23.3 23 -5 15 15 WSW 12 19 30.14 1021 N/A 0.00 0.00
3:53 pm 15:53 Sunny 75 23.9 24 -4.4 15 15 W 10 17 30.14 1021 N/A 0.00 0.00
4:53 pm 16:53 Sunny 76 24.4 26 -3.3 16 16 WSW 7 11 30.14 1021 N/A 0.00 0.00
5:53 pm 17:53 Sunny 72 22.2 26 -3.3 18 18 W 7 11 30.15 1021 N/A 0.00 0.00
6:53 pm 18:53 Clear 56 13.3 22 -5.6 26 26 SSW 8 13 30.18 1022 N/A 0.00 0.00
7:53 pm 19:53 Clear 50 10 22 -5.6 33 33 SW 5 7 30.21 1023 N/A 0.00 0.00
8:53 pm 20:53 Clear 49 9.4 23 -5 36 36 Calm 30.21 1023 N/A 0.00 0.00
9:53 pm 21:53 Clear 42 5.6 21 -6.1 43 43 W 8 13 30.23 1024 N/A 0.00 0.00
10:53 pm 22:53 Clear 39 3.9 20 -6.7 46 46 SW 5 7 30.24 1024 N/A 0.00 0.00
11:53 pm 23:53 Clear 36 2.2 19 -7.2 50 50 WSW 5 7 30.24 1024 N/A 0.00 0.00

Powered by AerisWeather